Probability
0 1 1 1 2 3 4 3 3 3 3 3 3 3 3 3 3 2 1 1 2 4 5 5 3 1 1 2 3 1 0 0 0 0 0 0 0 0 0 0 0 0 0
1 0 0 0 1 3 3 3 3 3 3 3 3 3 3 3 3 2 2 2 3 6 7 6 5 2 1 2 3 2 1 0 0 0 0 0 0 0 0 0 0 0 0
2 1 0 0 1 2 2 3 3 3 3 3 3 3 3 3 2 1 2 2 3 6 7 7 6 4 3 2 3 3 2 0 0 0 0 0 0 0 0 0 0 0 0
3 2 1 1 2 2 3 3 3 3 3 3 3 3 3 2 1 0 1 1 1 3 5 5 5 5 5 4 3 3 1 0 0 0 0 0 0 0 0 0 0 0 0
3 3 2 2 3 3 3 3 3 3 3 3 3 3 2 1 0 0 0 0 0 1 1 2 2 4 6 5 4 3 1 0 0 0 0 0 0 0 0 0 0 0 0
4 4 4 4 4 3 3 3 3 3 3 3 3 2 1 0 0 0 0 0 0 0 0 0 0 2 4 4 3 3 2 1 1 0 0 0 0 0 0 0 0 0 0
6 7 7 5 4 3 3 3 3 3 3 3 2 1 0 0 0 0 0 0 0 0 0 0 0 0 1 2 3 3 3 3 2 1 0 0 0 0 0 0 0 0 0
9 10 9 6 4 3 3 3 3 3 3 3 1 0 0 0 0 0 0 0 0 0 0 0 0 0 0 1 1 2 3 3 3 2 1 0 0 0 0 0 0 1 1
11 12 11 9 6 4 3 3 4 3 3 2 1 0 0 0 0 0 0 0 0 0 0 0 0 0 0 0 0 1 2 3 3 3 2 0 0 0 0 0 0 0 0
12 12 12 11 9 7 5 5 5 4 2 1 0 0 0 0 0 0 0 0 0 0 0 0 0 0 0 1 1 0 1 1 2 3 2 1 1 0 0 0 0 0 0
14 13 13 12 11 9 8 7 6 4 2 1 0 0 0 0 0 0 0 0 0 0 0 0 0 0 1 2 2 1 0 0 1 2 3 3 2 1 1 0 0 0 0
13 13 13 13 12 10 9 8 7 4 3 2 1 0 0 0 0 0 0 0 0 0 0 0 0 1 2 4 3 1 0 0 0 1 2 3 3 3 3 1 0 0 0
11 12 12 12 11 10 9 8 7 6 4 4 3 1 0 0 0 0 0 0 0 0 0 0 0 1 2 3 2 1 0 0 0 0 1 2 2 3 2 1 0 0 0
10 12 13 11 10 10 9 7 7 6 6 6 5 3 2 1 1 0 0 0 0 0 0 0 0 0 1 1 1 0 0 0 0 0 0 1 1 1 1 0 0 1 1
12 14 14 11 9 9 9 8 7 6 6 6 6 6 5 4 3 1 1 0 0 0 0 0 0 0 0 0 0 0 0 0 0 0 0 0 0 0 0 0 0 0 0
16 16 15 12 10 9 9 9 8 7 7 7 6 6 7 6 4 3 2 1 1 1 0 0 0 0 0 0 0 0 0 0 0 0 0 0 0 0 0 0 0 0 0
20 18 15 13 11 9 8 9 9 8 8 7 6 6 7 6 4 3 3 3 2 2 1 0 0 0 0 0 0 0 0 0 0 0 0 0 0 0 0 0 0 0 0
22 19 15 13 11 9 9 9 9 9 8 7 6 6 6 6 5 3 3 3 3 3 2 1 0 0 1 0 0 0 0 0 0 0 0 0 0 0 0 0 0 0 0
22 19 15 11 10 9 9 9 8 8 8 6 4 4 5 6 5 4 3 3 3 3 3 2 1 0 0 0 0 0 0 0 0 0 0 0 0 0 0 0 0 0 0
21 18 14 11 9 9 10 9 8 7 6 5 3 3 3 4 4 4 3 3 3 3 4 3 1 0 0 0 0 0 0 0 0 0 0 0 0 0 0 0 0 0 0
19 16 13 11 10 9 9 8 7 6 6 5 4 3 1 1 2 2 2 3 3 4 4 4 3 1 1 1 0 0 0 0 0 0 0 0 0 0 0 0 0 0 0
14 12 10 11 11 9 7 5 5 6 6 5 4 2 1 0 0 1 1 1 2 3 3 4 3 2 1 0 0 0 0 0 0 0 0 0 0 0 0 0 0 0 0
8 7 7 8 10 9 5 3 4 4 4 4 3 2 1 0 1 1 0 0 1 1 1 2 3 2 0 0 0 0 0 0 0 0 0 0 0 0 0 0 0 0 0
5 4 5 6 7 7 4 2 2 3 4 3 3 3 3 2 2 1 0 0 0 0 0 1 2 1 0 0 0 0 0 1 1 1 0 0 0 0 0 0 0 0 0
5 4 3 4 6 5 2 0 1 3 4 4 4 5 6 5 3 1 0 0 0 0 0 0 1 1 0 0 0 0 1 2 2 2 1 0 0 0 0 0 0 0 0
5 4 3 4 6 5 2 0 0 2 5 5 4 4 5 6 4 1 1 1 1 0 0 0 0 0 0 0 0 1 2 3 3 2 1 0 0 0 0 0 0 0 0
Wind_Speed
2 2 2 2 2 2 2 2 2 2 2 1 2 3 3 3 3 2 2 7 9 9 9 10 10 10 10 10 10 10 10 9 8 9 9 9 9 8 8 8 8 7 7
2 2 2 2 2 2 2 2 3 2 2 2 2 2 3 3 3 3 2 4 7 8 9 9 10 10 10 10 10 9 9 10 9 9 9 9 9 8 8 8 8 8 7
3 3 2 2 1 1 2 2 2 2 2 2 2 2 2 3 3 3 3 2 3 6 8 8 8 9 9 9 9 9 9 9 9 9 9 9 9 9 8 8 8 8 8
3 3 2 1 1 2 2 2 2 2 1 1 1 1 2 2 3 3 3 2 2 2 4 7 7 7 8 9 9 9 9 8 8 8 9 9 9 9 9 9 8 8 8
3 3 2 1 2 2 2 2 2 2 2 2 1 1 1 2 2 3 3 3 2 2 2 4 6 6 7 8 9 9 9 9 8 9 9 9 9 8 8 8 8 8 8
2 3 2 2 2 2 1 2 2 1 2 2 1 1 1 1 2 2 3 2 2 2 2 2 2 3 5 6 7 8 9 9 8 8 8 8 8 8 8 8 8 8 8
2 2 2 2 2 2 1 1 2 2 1 2 2 2 2 1 1 1 2 2 2 2 2 2 1 1 2 4 5 7 7 8 8 7 7 7 7 7 7 7 7 8 9
2 2 3 2 1 2 1 1 2 2 1 1 2 1 1 3 2 0 1 2 2 2 2 2 1 1 1 1 3 6 7 7 7 7 7 7 7 6 6 6 5 6 8
2 2 2 2 1 2 1 1 2 3 2 1 2 3 2 2 1 2 0 1 2 1 1 1 2 2 2 1 2 3 5 5 6 6 6 6 5 5 5 5 5 5 5
1 2 2 2 2 2 1 1 1 1 2 1 1 1 2 3 3 0 1 1 0 1 1 2 2 2 2 2 2 3 4 4 5 5 5 5 4 4 4 5 5 5 5
1 1 2 2 2 1 1 1 1 1 1 2 1 1 1 1 1 2 1 1 1 0 1 1 1 1 2 2 2 4 5 5 4 4 4 4 3 3 3 3 3 3 3
1 1 2 2 1 1 1 1 1 1 1 1 1 1 1 1 2 2 2 1 0 1 0 1 1 1 1 2 3 5 5 5 5 5 4 3 3 2 2 1 1 0 0
0 0 1 1 1 1 1 1 1 1 1 1 1 1 1 1 2 2 3 2 1 0 1 1 0 1 1 1 2 5 5 6 5 5 4 4 3 3 2 2 1 1 1
1 1 2 1 1 1 1 1 1 0 1 1 1 1 0 0 1 2 3 3 2 0 1 1 1 0 1 2 3 4 3 5 5 5 4 4 4 4 3 3 3 2 2
2 2 2 2 1 1 1 2 1 1 1 1 1 1 1 1 1 1 2 2 3 2 1 1 0 1 0 1 3 3 3 5 6 5 5 4 4 4 4 4 4 4 4
2 2 2 2 2 1 1 2 1 1 2 1 1 2 1 1 1 1 1 1 2 3 2 1 1 1 1 2 4 3 3 6 6 5 5 5 5 5 5 5 5 5 5
2 3 2 3 2 2 2 2 2 2 2 2 2 2 1 1 1 1 1 2 2 3 3 0 0 1 2 2 2 2 2 2 2 4 5 5 5 5 5 5 5 4 4
2 3 3 3 3 2 2 2 2 2 2 2 2 2 1 2 2 1 2 2 2 2 4 2 1 1 1 2 3 3 2 3 2 4 5 5 5 5 5 5 5 4 5
3 3 3 3 2 2 2 2 2 2 2 1 1 1 1 2 2 2 2 2 2 2 2 3 1 1 1 2 3 3 3 2 2 2 3 4 4 4 4 4 4 4 3
3 3 3 2 2 2 2 2 2 2 2 1 1 1 1 2 2 2 3 2 3 3 3 3 2 1 1 1 2 2 2 1 1 1 2 2 3 3 3 3 3 3 2
4 3 3 3 2 2 2 2 3 3 2 2 1 1 1 3 4 3 3 3 3 3 3 3 2 1 1 1 1 1 2 1 1 1 1 0 1 0 0 1 2 3 2
3 4 3 3 2 2 3 4 3 2 2 2 1 1 1 2 3 4 4 5 5 5 4 3 2 2 2 1 1 2 2 1 0 1 1 0 0 0 1 1 2 3 4
3 3 3 3 2 2 3 4 4 2 2 1 1 1 1 1 2 1 3 3 3 4 5 5 4 3 3 3 3 2 2 2 2 2 1 1 1 2 2 2 2 3 4
3 3 2 2 2 1 3 3 4 2 1 1 1 1 1 0 1 2 3 2 1 1 2 2 3 4 3 3 3 3 4 2 0 0 2 1 2 2 2 2 3 4 4
2 2 2 2 2 1 2 3 3 1 1 0 0 0 1 1 1 4 4 3 1 1 1 1 2 2 3 3 4 3 2 2 0 2 1 1 1 1 1 2 3 4 5
3 2 2 1 2 1 2 3 3 2 1 0 1 1 1 2 2 3 3 3 2 1 0 2 2 1 1 2 3 4 4 3 1 1 2 1 1 1 1 2 2 2 3
Wind_Direction
136 141 149 148 154 154 154 155 147 141 147 174 179 161 151 142 142 151 156 165 169 172 173 175 176 177 176 177 179 180 182 182 181 181 183 181 177 176 179 179 180 179 177
132 126 123 137 154 165 166 160 159 148 151 152 158 159 156 152 150 164 161 173 178 175 177 178 179 183 183 184 184 187 191 191 186 182 184 187 187 188 190 191 189 188 185
131 127 126 136 160 156 147 140 139 132 144 147 152 161 153 151 161 163 164 167 177 178 178 181 181 182 183 185 186 187 189 192 192 190 190 191 193 193 196 196 195 193 190
137 127 129 143 149 130 132 135 132 125 133 142 149 164 158 151 163 165 162 167 169 179 189 190 184 184 188 192 195 195 193 190 190 191 194 194 197 197 198 200 199 196 194
137 133 138 144 118 112 124 143 133 140 143 151 164 166 166 162 168 170 165 165 169 179 188 194 189 188 192 198 202 201 198 197 196 195 195 194 196 196 197 199 199 200 200
134 131 133 132 121 113 110 124 137 139 152 158 134 104 157 178 162 164 171 160 166 181 174 176 186 199 197 198 203 204 203 203 202 201 201 201 201 199 201 203 205 207 207
133 124 128 123 126 129 137 141 137 131 131 117 90 43 13 36 117 157 154 149 153 176 159 167 180 191 214 202 196 195 196 199 198 197 199 201 204 203 204 208 213 216 216
135 135 133 139 136 121 113 122 143 147 172 154 133 103 26 10 10 96 136 155 169 165 162 165 147 174 192 200 188 191 198 197 196 200 204 204 206 207 208 212 215 218 220
125 132 134 139 135 130 145 179 167 163 183 221 165 149 151 198 293 347 347 179 170 170 180 169 170 182 182 182 192 191 188 189 184 184 186 186 190 195 203 211 216 220 222
130 141 143 144 140 129 141 202 185 176 157 185 238 175 167 164 157 209 340 352 149 170 180 173 176 185 181 176 146 136 158 162 173 181 181 178 179 184 199 209 217 221 221
102 134 132 132 140 141 149 144 80 122 141 161 169 159 109 103 148 161 205 316 6 334 184 160 158 177 178 168 157 134 137 140 145 160 175 173 172 179 193 212 223 224 224
39 79 121 122 130 134 141 146 111 101 116 117 120 129 154 168 184 171 176 186 204 310 53 123 161 184 172 152 151 135 138 136 131 126 130 141 148 148 152 157 175 149 0
72 233 136 124 127 142 133 108 102 94 104 101 121 158 167 187 165 154 150 169 174 307 23 36 41 174 165 132 135 129 131 134 135 132 124 119 117 111 98 91 103 76 17
174 150 128 129 120 117 111 98 90 99 78 86 63 74 88 98 124 145 157 153 135 34 32 358 10 37 127 129 125 123 119 128 133 125 118 115 111 103 94 86 79 75 62
139 122 124 118 104 100 104 107 85 69 67 64 67 69 71 66 95 112 136 154 154 161 210 284 357 350 160 131 130 125 125 117 118 120 120 116 110 103 95 90 87 82 76
123 113 108 109 106 99 102 105 92 66 81 57 73 72 55 45 94 88 119 108 122 141 159 226 202 201 144 126 127 127 121 112 110 113 110 111 110 104 98 94 91 85 79
126 124 121 111 102 90 87 93 92 78 80 52 47 72 52 73 89 81 92 96 98 116 133 176 68 86 84 95 99 105 108 100 102 109 111 111 111 111 108 100 94 86 80
132 131 116 106 103 100 99 103 97 84 87 74 50 56 43 79 77 80 98 108 112 123 136 147 101 78 88 116 113 119 112 110 100 105 116 114 115 117 117 111 104 96 89
123 113 108 112 110 109 109 110 111 99 97 99 86 81 65 91 90 89 103 107 112 109 114 128 117 86 85 104 92 90 86 72 93 102 113 116 122 124 121 119 116 109 99
124 122 117 118 114 109 111 119 112 104 91 73 67 76 82 107 121 124 115 115 114 105 102 106 104 86 79 73 89 96 81 58 75 73 76 99 107 120 128 130 131 130 127
117 118 106 95 95 104 108 121 125 116 104 81 52 44 73 95 104 119 125 134 128 119 114 112 114 95 92 99 141 156 125 106 42 52 90 60 84 82 186 181 170 165 164
109 104 103 102 93 95 90 104 118 112 110 103 72 27 51 64 79 94 115 130 140 144 150 144 149 158 183 180 163 148 135 120 296 282 134 275 154 256 256 242 218 197 197
115 115 113 108 101 84 97 109 115 124 117 123 117 69 49 45 65 102 102 99 118 142 158 164 166 185 187 194 169 158 157 157 200 211 144 277 274 258 256 247 226 214 208
123 127 125 124 123 105 104 112 118 116 110 111 142 162 155 320 115 128 123 102 92 139 175 175 183 198 192 190 185 182 179 163 1 317 131 207 270 260 267 263 241 222 216
131 132 133 131 135 127 114 123 123 124 117 5 262 141 153 148 120 124 120 117 86 359 37 139 166 170 164 161 158 129 119 122 209 279 222 175 244 264 277 271 261 247 242
140 135 123 132 136 129 113 127 127 143 140 259 342 349 94 133 122 122 133 140 149 225 78 58 60 65 129 155 156 164 164 159 172 255 233 174 218 164 290 278 257 258 257